INTELSAT 39 (IS-39)

Last updated on Nov. 14, 2019, 4:21 a.m. UTC

1 44476U 19049B   19317.20401921  .00000047  00000-0  00000+0 0  9998
2 44476   0.0093 195.5525 0000265 275.9984  75.9152  1.00273990  1032
UTC
Height (km)
Latitude
Longitude
Inclination
Orbital Period
UTC large
Height (km)
Speed (km/s)
/
Latitude / Longitude
Inclination (degrees)
Orbital Period (minutes)
Azimuth
Elevation
Range (km)
Doppler Factor
iOS Compass Heading
iOS Angle

Next 30 passes for location: Hong Kong

Rise time Rise Azimuth (degrees) Set time Set Azimuth (degrees) Duration Max altitude (degrees)

No matching passes for this satellites